Wind_Speed
14 14 13 13 15 18 19 19 19 19 16 13 11 10 9 10 10 10 9 9 8 8 8 8 9 10 11 12 13 14 14 14 14 15 15 15 16 16 17 17 18 18 19 20 21 22 22 22 22 22 23 25 26 27 28 28 29 30 31 32 32 33 33 33 33 33 34 35 36 37 38 39 39 39 40 40 40 39 38 37 38 39 39 40 40
15 15 15 15 16 18 19 20 20 18 15 13 12 11 10 10 10 11 11 11 10 10 10 10 10 11 12 13 14 14 14 14 15 15 15 15 15 16 16 17 17 18 19 20 21 21 21 21 22 22 23 25 25 26 27 28 28 29 30 31 31 33 34 35 35 35 35 36 36 37 37 39 40 41 42 43 44 42 39 35 34 35 36 37 37
17 16 17 18 19 20 20 20 20 18 14 12 12 12 12 12 11 12 12 12 12 12 11 11 11 11 12 13 14 14 14 14 14 14 14 15 15 15 15 16 17 18 19 20 20 20 20 21 22 22 23 24 25 26 27 27 28 29 29 30 31 32 34 36 36 37 38 38 38 39 39 40 41 42 43 45 46 45 41 35 32 31 32 34 35
18 18 19 20 21 21 20 20 20 19 15 12 12 13 13 14 13 13 14 14 14 13 12 12 11 12 13 13 13 13 14 14 14 14 14 14 14 14 15 15 17 18 19 19 19 19 20 21 21 22 23 24 25 25 26 27 27 28 29 30 31 32 33 35 36 38 39 39 39 40 41 42 43 44 45 46 47 46 41 36 32 31 30 32 33
19 19 20 22 22 22 21 20 20 20 17 14 14 14 15 15 15 15 15 15 14 14 13 12 12 13 13 13 13 13 13 13 13 13 12 12 13 13 14 15 17 18 19 19 19 19 19 20 21 22 23 24 24 25 25 26 27 28 29 30 30 32 33 34 36 37 39 39 40 40 41 42 43 45 46 48 49 48 42 36 33 33 32 31 32
19 19 20 22 23 22 21 20 20 20 18 16 16 15 16 16 16 16 16 16 15 14 13 13 13 13 13 12 12 13 12 12 12 12 11 11 12 13 14 16 17 18 18 18 18 18 19 19 20 21 22 23 24 24 25 26 27 28 28 29 30 31 33 34 36 37 38 39 40 41 42 43 44 46 48 49 51 51 47 39 35 35 35 34 33
19 20 21 22 22 21 21 20 20 20 19 18 17 16 17 17 17 17 17 17 16 15 14 13 13 12 12 12 12 12 12 11 11 10 10 11 12 13 14 15 17 17 17 17 17 18 18 19 20 21 22 22 23 24 25 26 27 28 28 29 31 32 34 35 37 38 38 39 40 42 43 44 46 47 49 50 51 51 50 46 41 39 39 38 37
20 20 21 22 22 21 20 20 20 20 19 19 18 17 18 18 18 18 18 18 16 15 14 13 12 12 12 12 12 11 11 10 10 9 9 10 11 12 14 15 16 16 16 16 17 18 18 19 20 21 22 22 23 24 25 26 26 27 28 30 31 33 35 36 37 38 39 40 41 42 44 45 46 47 49 51 53 53 51 49 47 45 44 43 41
21 21 22 22 22 21 21 20 20 20 20 19 18 19 19 19 19 19 19 18 16 15 14 13 12 12 12 12 11 11 10 9 8 8 9 10 11 12 14 15 15 15 15 16 16 17 18 19 20 21 22 23 24 24 25 26 27 28 29 31 33 35 36 38 39 39 41 42 43 44 45 46 48 49 50 53 55 55 52 49 49 50 49 46 42
22 22 23 23 23 22 22 22 21 21 20 19 19 20 20 20 20 19 18 17 16 14 13 13 12 12 12 11 11 9 8 8 8 8 8 9 11 12 14 14 14 14 15 15 16 17 18 19 20 21 22 22 23 24 26 27 28 30 31 33 35 36 38 39 40 41 42 43 44 45 46 47 48 50 51 53 54 54 53 52 52 52 51 49 44
22 23 24 24 24 23 23 22 21 20 20 20 21 21 21 20 19 18 17 16 15 14 13 13 12 12 12 11 10 8 8 7 7 7 8 9 11 12 13 13 13 14 14 15 15 16 17 18 19 20 21 22 23 24 25 27 29 30 33 35 36 38 39 40 41 42 43 44 45 47 47 48 49 49 51 52 53 54 53 53 54 54 53 51 48
22 23 25 25 25 25 23 22 20 20 20 21 21 21 21 20 19 18 17 16 15 14 14 13 12 12 11 10 9 8 7 7 7 7 8 9 11 12 12 12 12 13 13 14 15 15 16 17 18 19 20 21 22 24 25 26 28 30 32 34 36 37 39 40 42 43 44 45 46 47 48 49 49 49 51 53 54 54 53 53 54 54 52 52 50
23 24 25 26 26 25 23 22 20 20 20 21 21 21 21 20 19 18 17 16 15 15 14 13 12 11 10 9 8 8 7 6 6 7 8 9 11 11 11 11 11 12 12 13 14 15 15 16 16 17 19 20 22 23 24 26 28 30 32 33 34 36 37 39 41 42 44 45 46 48 49 49 49 50 51 52 54 55 54 54 53 52 51 51 49
24 25 26 26 26 25 24 23 22 21 21 20 21 22 21 21 20 18 16 15 15 15 14 12 11 10 9 9 8 7 7 6 6 6 8 9 10 10 10 10 10 10 11 12 13 13 14 14 15 16 18 19 21 22 24 25 27 29 31 32 33 35 36 37 39 41 42 44 45 47 48 49 49 49 50 51 53 54 54 55 54 52 50 48 47
26 26 27 28 27 26 25 24 23 23 22 21 22 22 22 22 20 18 16 15 15 14 13 12 11 10 9 9 8 7 6 6 6 6 8 9 9 9 9 9 9 9 10 10 11 11 12 12 14 16 17 19 20 22 23 25 27 28 30 31 33 34 36 37 39 40 42 43 44 45 47 48 48 49 49 49 50 51 52 53 52 51 49 47 45
28 27 28 29 28 27 26 26 26 24 24 24 24 23 24 23 20 18 16 15 14 13 12 11 10 10 10 10 9 7 6 6 6 7 8 9 8 8 8 8 8 8 8 9 9 9 10 11 13 15 17 19 20 22 23 25 27 28 29 30 31 33 34 36 38 39 40 41 42 43 44 45 46 48 48 48 49 50 50 50 51 52 52 50 48
28 28 28 29 30 30 28 27 27 25 26 27 24 23 25 24 20 17 16 15 13 12 11 11 11 11 11 10 9 8 7 6 6 7 8 8 7 7 7 7 7 7 7 7 7 7 8 11 13 15 17 19 20 22 24 25 26 27 28 29 30 31 32 33 35 36 38 39 39 40 41 42 44 46 47 48 49 49 50 50 52 55 56 55 54
28 28 29 31 31 30 28 26 26 26 28 27 25 25 27 24 20 18 17 15 14 12 11 11 11 12 11 10 9 8 7 6 6 7 7 7 6 6 6 6 6 5 5 6 6 6 8 10 13 15 17 18 20 22 23 25 26 27 28 30 31 31 32 33 34 35 36 36 37 37 38 40 42 44 46 48 49 50 51 52 54 55 56 58 57
26 27 28 28 27 26 25 24 25 28 26 24 25 27 27 23 20 19 17 15 14 13 13 13 13 12 12 10 9 8 6 6 7 7 7 6 5 5 5 5 4 4 4 4 4 5 7 10 13 15 16 18 20 22 23 25 26 27 28 30 31 32 33 35 36 36 36 37 37 37 38 39 41 42 45 47 49 50 51 52 53 54 56 57 57
23 23 23 24 24 23 22 21 23 26 24 21 24 30 29 25 23 20 17 15 14 14 14 14 14 13 12 10 9 8 7 7 8 7 7 6 5 4 4 4 3 2 2 2 3 5 8 10 12 14 16 18 20 21 23 25 26 28 29 30 31 32 34 35 36 37 37 38 38 38 38 39 40 41 43 45 48 49 51 52 53 54 55 56 56
18 19 20 21 21 20 18 17 18 21 21 20 24 28 27 24 23 20 17 15 14 15 15 16 15 13 12 11 10 8 8 8 8 7 7 5 5 4 4 3 2 1 1 2 3 5 8 10 12 14 15 17 19 21 23 25 27 28 30 31 32 33 34 35 36 36 36 37 37 37 38 38 38 40 42 44 46 48 49 51 53 54 55 56 55
18 17 18 18 18 17 16 16 15 16 19 20 21 22 21 21 20 19 18 16 16 16 16 16 15 13 12 11 10 8 8 9 8 7 6 5 5 4 3 3 3 2 1 1 3 5 7 10 11 13 15 17 19 21 23 25 27 28 29 31 32 33 34 34 35 35 35 36 36 37 37 38 39 39 41 42 44 46 47 49 51 52 53 53 54
20 19 19 18 16 16 16 16 15 16 19 20 21 21 21 22 21 18 17 18 18 17 17 16 15 14 12 11 10 9 9 9 8 8 7 6 5 4 4 4 4 3 2 1 3 5 7 9 11 12 14 16 18 20 22 24 26 27 29 30 31 32 33 33 34 34 34 34 35 36 37 38 39 40 40 41 42 44 45 46 48 49 50 50 51
20 20 21 19 17 16 16 15 16 19 20 20 23 24 22 22 21 18 18 19 19 18 17 16 15 14 13 12 11 10 10 10 9 8 8 7 6 5 5 6 5 4 2 2 3 5 7 8 10 12 14 16 18 20 22 24 26 27 28 30 31 32 32 33 33 34 34 34 34 35 36 37 39 39 40 40 40 40 41 41 43 44 46 47 48
19 20 20 18 17 16 15 15 18 20 21 22 23 23 21 20 21 19 19 19 19 19 18 16 15 15 13 12 11 11 10 10 9 9 8 7 7 6 6 7 6 5 3 2 3 5 7 8 10 12 14 16 18 20 22 24 25 27 28 30 31 32 33 33 34 35 35 35 35 35 35 36 37 38 38 38 38 37 36 37 38 39 40 42 44
20 20 18 16 15 15 15 16 18 19 21 22 23 22 20 20 21 20 19 19 20 19 18 17 16 15 14 12 12 11 11 11 10 9 9 8 8 8 8 8 7 5 4 3 4 5 7 9 10 12 14 16 18 20 22 24 25 27 29 30 32 33 34 35 36 36 36 36 36 35 35 34 34 35 35 35 36 36 36 37 37 38 38 40 41
22 21 18 16 16 17 17 17 18 19 21 22 22 22 21 22 22 21 20 19 19 18 17 17 16 15 14 13 12 12 12 12 11 10 10 9 9 9 9 9 8 6 5 4 5 6 7 9 11 13 15 17 18 20 22 24 25 27 29 31 32 34 36 37 38 38 38 37 37 35 34 33 32 32 33 34 35 36 37 37 37 38 38 38 38
22 21 20 20 20 20 20 19 19 20 21 22 22 22 21 21 21 21 20 20 18 17 16 16 16 16 15 14 14 14 13 12 12 11 11 10 10 10 10 10 9 8 6 5 6 7 8 10 12 13 15 17 19 21 22 24 26 27 29 31 33 35 37 39 39 39 39 38 37 35 34 33 31 31 31 32 33 34 35 36 37 37 37 37 38
22 22 23 23 23 23 21 20 19 20 22 22 23 23 22 21 21 22 22 21 21 20 19 18 18 17 16 16 16 15 15 14 13 13 12 12 11 12 12 11 10 9 7 7 7 8 9 11 12 14 16 17 19 21 23 25 26 28 29 31 33 36 38 39 39 39 39 38 37 36 35 34 32 31 30 30 30 32 33 34 35 36 36 37 37
23 23 23 24 24 24 22 20 19 20 22 23 23 23 22 22 24 25 24 23 23 23 23 23 22 20 18 18 17 16 15 14 14 14 14 13 13 13 13 12 11 10 9 8 8 9 10 12 13 14 16 18 20 21 23 24 26 28 30 32 34 36 37 38 39 39 39 38 38 37 36 35 34 32 31 30 29 30 30 31 33 34 35 36 36
24 25 26 26 25 24 22 20 19 20 21 23 24 23 22 23 25 25 24 24 25 25 25 25 23 20 19 18 17 17 16 15 15 15 15 14 14 14 14 14 12 11 10 10 10 10 11 13 14 15 16 18 20 21 23 24 26 27 30 32 34 36 37 37 38 38 39 39 38 38 37 36 35 33 32 31 30 29 28 28 29 30 32 34 35
26 28 30 29 26 23 22 21 20 20 22 23 24 24 23 24 25 24 23 24 26 27 26 25 22 19 17 17 17 17 16 16 16 16 16 16 16 16 16 15 13 12 11 11 11 12 13 14 15 16 17 19 20 21 23 24 26 28 30 32 34 35 36 36 37 38 39 39 39 38 37 36 35 34 33 32 31 30 29 28 28 28 29 30 31
29 30 32 31 27 24 23 22 21 21 23 24 24 24 24 25 24 22 22 25 27 27 26 24 21 19 17 17 18 17 17 17 17 17 17 17 17 17 17 16 14 13 13 13 13 13 14 15 16 17 19 20 21 22 23 25 26 28 30 32 34 34 34 35 36 37 38 39 39 39 38 37 35 34 33 32 31 30 30 29 28 27 27 27 28
28 30 32 32 29 27 25 23 22 23 24 24 24 24 25 25 24 23 24 26 27 27 25 23 20 18 18 18 18 17 17 17 18 18 18 18 18 18 18 17 15 15 15 15 14 14 14 16 17 19 20 21 22 23 24 25 27 29 30 32 33 33 32 33 35 36 37 38 38 38 38 37 36 34 33 32 31 30 29 29 28 28 27 27 27
27 30 32 32 30 29 27 24 23 25 25 25 25 26 26 26 24 23 25 26 27 26 25 22 19 18 18 18 17 17 17 18 19 19 19 19 19 19 19 18 17 17 16 16 15 15 15 17 18 20 21 22 23 23 25 26 28 29 31 31 31 31 31 32 33 34 35 36 37 37 37 36 36 34 33 32 31 30 29 29 29 28 28 28 27
24 26 29 29 28 28 28 27 26 26 26 26 26 27 27 26 24 25 27 28 28 27 26 23 20 19 18 18 17 17 18 19 19 20 20 20 20 20 19 19 18 18 18 17 16 16 17 18 20 21 22 23 23 24 25 27 28 30 31 30 30 29 29 30 31 32 33 33 34 35 35 35 35 34 32 31 31 30 30 29 29 29 29 28 28
21 22 23 23 23 26 30 30 29 28 28 27 28 28 28 26 26 27 29 29 29 28 26 23 22 20 19 18 18 18 19 20 20 21 21 20 20 20 20 20 19 19 19 18 17 17 18 19 21 23 23 24 24 25 26 27 29 30 30 29 29 28 28 29 29 30 30 31 32 33 34 34 34 33 32 31 30 30 30 29 29 29 29 29 28
22 23 23 22 22 25 29 31 30 30 29 28 29 29 28 27 28 29 30 30 29 28 26 23 22 20 19 19 19 20 21 21 21 21 21 21 21 21 21 21 20 20 19 19 19 19 19 21 22 24 24 24 25 25 26 28 29 29 29 28 27 27 28 28 28 29 29 29 30 31 32 33 33 31 30 30 30 30 30 30 30 29 29 29 29
21 21 22 22 23 26 29 31 31 30 30 29 29 29 29 29 30 31 31 30 29 27 25 23 21 19 19 21 21 21 20 20 20 20 21 21 22 22 22 21 20 20 20 20 20 20 21 22 24 25 25 25 26 26 27 28 28 28 28 28 27 26 27 27 28 28 28 29 30 30 31 31 30 29 28 28 28 29 29 30 30 31 30 30 30
20 19 19 22 25 28 31 34 34 33 31 29 29 28 28 29 30 31 30 29 28 27 24 22 20 20 21 22 21 20 20 19 20 21 22 22 22 22 21 21 20 20 20 20 20 21 22 23 24 25 26 26 27 27 28 28 27 27 27 27 26 26 26 27 27 28 28 29 29 30 30 29 27 26 26 26 27 28 29 29 30 31 31 31 31
19 20 20 22 25 29 32 34 35 34 31 28 27 27 27 28 30 31 30 29 29 27 24 21 20 21 22 22 21 20 20 20 21 22 22 22 21 21 21 20 20 21 21 21 21 22 23 24 25 26 26 27 28 28 28 27 27 26 26 26 25 25 25 26 26 26 27 28 28 28 28 27 25 24 24 24 25 26 27 28 29 30 31 31 32
18 21 21 22 24 27 30 33 34 33 31 28 26 25 26 28 30 30 30 30 29 27 24 21 21 21 22 21 20 20 20 20 21 21 21 20 20 20 20 21 21 21 21 22 22 23 24 24 25 26 27 28 28 28 27 27 26 26 26 26 25 25 25 25 24 25 26 27 27 27 27 26 24 23 22 23 24 24 25 26 27 28 28 29 31
18 20 21 22 24 26 29 31 33 32 30 28 27 27 28 29 30 30 31 30 28 26 23 21 21 21 21 20 20 19 19 20 20 20 19 20 20 20 21 22 22 22 22 22 23 23 24 25 26 27 27 28 28 28 27 26 26 26 26 25 25 24 24 24 24 25 26 26 27 27 27 26 25 24 24 24 25 25 26 27 28 29 29 29 29
20 21 22 23 25 27 29 31 31 30 28 27 28 30 30 31 31 31 31 30 27 24 22 21 21 21 21 20 19 19 19 19 19 19 20 20 20 21 22 23 23 23 23 23 23 23 24 25 26 27 27 27 27 27 27 26 26 26 26 26 25 24 24 25 25 26 27 28 28 28 28 28 27 26 26 26 27 28 29 30 30 31 31 31 31
19 20 22 24 26 28 30 31 31 31 29 29 31 32 33 33 33 32 30 28 25 23 21 21 21 20 20 20 19 19 19 19 19 20 20 20 20 21 22 23 23 23 24 24 24 24 25 26 26 27 27 27 27 27 27 27 27 28 28 28 26 24 24 25 26 27 29 30 30 30 30 29 28 27 27 28 29 30 31 32 32 33 33 33 33
18 19 21 23 25 28 29 31 32 32 31 31 32 32 31 31 31 30 28 26 24 22 20 20 19 19 19 19 19 19 18 19 20 20 21 21 22 22 23 24 24 24 24 24 24 25 25 26 26 27 27 27 27 27 28 28 28 29 29 29 27 24 23 24 26 28 29 30 31 32 31 30 29 29 30 30 31 31 32 32 33 33 34 34 34
20 19 20 22 25 28 30 32 31 30 29 30 30 29 29 28 28 28 27 26 23 21 20 19 19 19 19 19 18 18 18 19 20 21 22 22 22 23 24 24 25 25 25 25 25 25 25 26 27 27 28 28 28 28 28 28 29 29 30 29 27 25 23 23 26 28 30 31 32 32 32 32 32 32 32 32 33 33 34 34 34 34 34 35 35
19 19 20 22 26 29 32 33 33 32 32 33 32 31 30 29 28 28 27 25 23 21 20 19 18 18 17 17 18 18 19 20 21 22 22 23 23 24 24 25 25 25 25 25 25 25 26 27 27 28 29 29 29 29 28 28 29 29 30 29 28 26 25 25 27 30 31 32 33 33 34 34 34 35 35 36 36 36 36 36 36 37 37 38 38
19 21 22 24 27 29 31 32 32 32 32 32 32 31 30 29 27 26 25 24 22 20 19 18 17 16 17 18 19 20 20 21 22 23 24 24 24 24 25 25 25 25 25 25 26 26 27 27 28 28 29 29 29 29 29 28 28 29 30 30 29 28 27 28 30 31 33 34 35 36 37 37 37 38 39 39 40 40 40 39 40 40 41 43 43
19 22 25 27 28 29 29 27 26 25 25 25 27 28 27 26 24 23 22 21 20 19 18 18 17 17 18 20 21 22 22 23 24 24 23 23 24 24 25 25 25 26 26 26 27 27 27 27 28 28 29 29 29 29 29 29 29 29 30 31 31 31 31 31 32 33 35 36 37 38 39 40 41 42 42 43 43 43 43 43 44 45 45 47 47
16 21 25 28 30 31 28 25 24 24 24 24 25 25 24 23 21 20 20 20 19 20 20 19 19 19 20 21 22 23 24 24 23 23 23 24 24 25 25 26 26 26 27 27 27 27 27 27 28 28 29 29 29 29 29 30 30 30 31 32 33 34 35 35 35 36 37 39 40 41 42 42 44 45 45 46 47 46 46 47 48 48 49 50 50
Wind_Direction
232 226 221 206 192 189 190 192 194 197 203 207 211 216 219 221 225 229 232 237 243 251 258 265 272 277 284 289 293 298 300 302 303 302 304 306 306 307 310 314 318 320 322 325 329 332 334 336 339 343 345 346 346 348 348 348 349 349 348 347 346 345 346 346 348 350 350 348 346 345 343 343 342 341 340 340 338 335 329 322 316 311 307 304 302
228 222 217 209 200 196 198 201 200 201 207 212 216 224 231 236 239 238 239 244 249 256 261 266 273 279 284 289 293 296 298 300 302 303 305 305 305 308 313 317 319 321 325 329 332 334 336 340 344 345 346 347 348 349 350 350 350 349 348 348 348 347 347 348 348 350 351 350 348 347 345 344 343 344 344 343 342 339 334 327 318 312 308 305 303
226 221 214 210 206 204 206 208 206 207 212 219 225 235 243 248 251 248 246 249 253 258 264 269 275 280 284 288 290 294 298 300 302 303 303 303 306 311 315 318 321 324 329 332 334 337 341 344 345 346 347 349 350 351 351 351 350 349 349 349 350 350 349 349 350 350 351 352 350 348 347 347 347 346 346 346 345 343 338 332 324 317 313 309 304
227 223 216 211 209 209 211 212 212 213 221 232 239 246 252 256 257 255 253 254 256 260 265 270 277 281 282 285 289 294 298 299 300 300 301 304 309 313 316 319 324 328 332 334 338 342 345 346 346 347 349 351 352 352 351 352 351 350 350 351 351 352 352 352 352 352 352 353 353 351 349 350 350 349 348 347 347 345 341 335 328 323 320 317 311
227 225 219 213 211 212 214 216 218 220 229 245 251 253 256 259 259 258 257 258 259 262 266 271 276 278 279 283 289 294 296 296 297 298 301 306 309 313 318 323 327 331 334 337 341 344 345 346 347 349 352 352 352 352 352 352 352 351 351 351 352 353 355 356 355 355 354 354 354 353 351 351 351 351 350 349 348 346 344 340 334 329 326 324 318
227 226 222 217 214 214 217 220 222 225 236 249 253 254 257 259 260 260 259 259 260 263 268 271 272 274 278 283 288 290 291 293 294 296 301 306 310 316 321 326 331 334 337 340 344 345 345 347 350 352 354 353 352 352 353 353 353 353 352 353 354 355 357 358 357 357 356 356 355 355 354 353 353 353 353 352 350 347 344 343 340 335 332 329 324
227 225 222 218 216 217 220 222 225 230 240 248 250 253 256 258 258 258 258 259 262 264 266 267 268 272 277 281 284 287 288 289 291 295 301 306 312 319 324 330 334 336 339 343 344 345 346 348 352 354 354 354 354 354 354 354 354 354 354 355 357 358 359 360 360 358 357 358 358 357 356 356 355 355 355 353 353 351 348 345 344 341 339 339 336
226 225 222 218 218 220 223 225 229 235 242 245 248 251 254 255 256 257 258 259 260 261 261 263 267 270 274 278 281 282 283 285 288 294 301 308 315 322 328 333 336 337 341 344 343 344 348 351 353 354 355 355 356 357 357 357 357 357 358 359 360 1 1 1 1 0 359 359 0 0 359 358 357 357 356 354 354 354 353 350 348 346 345 347 346
227 224 221 219 220 222 226 230 234 238 242 244 247 249 251 253 254 255 257 257 257 257 258 261 263 266 270 274 275 276 277 280 286 294 302 310 318 326 331 333 336 340 343 343 344 347 350 354 355 356 357 358 359 359 360 359 359 360 1 2 4 4 4 3 3 2 2 1 2 2 1 360 359 358 358 358 357 356 355 353 353 352 349 350 351
228 226 223 222 223 226 229 233 235 238 240 242 244 247 249 251 253 253 254 254 254 255 256 256 258 262 267 269 269 270 272 277 285 295 304 314 322 328 331 334 338 342 343 343 346 351 355 357 358 359 0 2 3 3 3 3 3 4 5 6 6 6 6 5 4 5 5 4 3 3 3 2 1 360 0 1 359 357 357 357 357 356 353 351 354
229 227 225 224 225 228 230 231 233 236 239 241 243 246 248 248 249 250 250 251 250 249 249 250 254 259 263 263 263 264 268 275 285 296 306 317 324 328 331 336 340 342 343 345 350 356 360 0 0 2 4 5 7 7 8 8 9 9 10 9 8 7 6 5 6 7 7 7 5 5 4 3 2 2 1 1 1 0 1 2 1 359 356 353 354
230 228 226 225 225 227 227 228 231 234 237 240 243 245 246 246 246 246 246 244 243 242 243 247 252 256 258 259 258 259 265 273 283 296 309 318 324 328 333 338 342 342 344 350 356 0 3 2 2 6 8 10 11 11 12 12 12 12 13 12 10 8 6 5 6 7 8 8 7 6 5 4 3 3 3 2 2 2 3 5 5 3 359 356 355
230 229 227 226 225 225 225 226 229 232 235 239 243 244 243 241 241 240 238 237 235 236 241 246 250 253 253 254 253 254 261 271 281 296 311 319 324 330 335 338 340 342 347 355 0 3 4 4 6 11 14 15 16 15 14 14 14 14 14 12 10 9 8 7 7 7 8 8 8 7 5 4 4 3 4 4 3 3 5 6 7 6 3 359 357
229 229 228 227 226 225 226 227 228 230 234 240 244 244 240 236 234 231 229 229 231 233 239 244 248 249 248 247 246 248 256 268 282 299 312 320 325 330 333 335 338 344 353 360 4 6 6 6 12 17 19 18 18 16 15 15 15 15 13 11 9 8 7 6 6 8 8 8 8 7 6 5 4 4 4 5 5 5 6 6 7 8 7 4 1
228 228 228 227 227 227 228 229 230 231 236 241 245 244 240 232 227 224 222 224 228 232 238 243 245 243 239 238 240 245 253 266 282 299 311 319 324 326 328 333 339 348 357 4 7 7 7 12 19 22 21 20 18 16 14 14 14 15 12 9 7 6 5 5 6 7 8 7 7 6 5 5 4 4 4 5 6 7 9 8 7 8 9 10 7
228 228 228 228 228 229 229 230 232 234 238 242 244 242 237 230 220 215 217 220 226 230 235 240 241 235 231 230 234 241 247 259 280 299 311 315 317 320 324 331 340 350 1 7 8 8 12 19 24 24 22 20 17 15 13 13 13 12 10 8 7 6 4 4 5 6 6 6 6 5 5 4 4 4 4 5 6 7 9 9 9 9 11 12 13
227 228 229 229 228 228 229 231 235 238 242 247 247 238 231 224 214 210 214 216 221 227 230 233 232 227 225 227 231 236 242 256 280 298 305 307 308 313 321 328 338 352 5 9 8 10 19 25 25 24 22 18 16 14 12 11 11 9 7 5 5 5 4 5 5 5 5 5 5 4 4 3 4 5 5 5 6 6 7 9 11 12 12 12 14
229 230 231 230 229 229 230 232 237 241 245 250 250 239 226 216 205 204 209 212 214 220 223 224 224 221 223 227 228 230 239 259 280 292 294 295 300 308 315 324 338 356 8 10 9 14 23 27 26 24 20 16 14 12 10 9 8 6 4 3 2 2 2 4 5 5 4 4 3 3 3 3 4 5 6 6 6 6 7 9 12 14 14 13 14
235 236 237 238 238 238 240 241 245 250 252 250 244 236 226 213 202 201 205 208 211 215 216 215 215 216 219 224 225 228 241 261 275 282 284 285 291 299 308 320 338 358 8 8 9 17 24 27 26 22 18 14 12 10 8 6 5 3 2 2 0 359 1 2 3 3 2 1 1 1 2 3 4 5 7 8 8 6 7 9 11 14 16 15 14
244 246 246 244 244 247 252 255 255 258 262 254 239 233 223 209 201 198 199 205 210 213 212 208 208 212 216 219 221 227 243 261 269 273 274 275 281 289 299 312 326 351 4 2 5 16 23 25 24 19 15 12 9 7 5 4 2 1 1 359 358 359 1 2 1 1 0 360 359 359 360 2 4 5 7 8 9 8 7 8 10 13 15 16 16
246 247 248 245 243 246 252 255 254 258 263 255 242 238 230 215 202 193 192 200 207 209 208 204 205 211 214 215 220 230 245 258 264 264 263 264 268 277 289 290 276 270 336 343 358 14 22 22 20 15 11 9 6 4 3 2 0 359 358 357 357 358 360 360 360 359 358 358 357 357 357 360 3 6 7 8 10 10 9 8 9 12 14 15 16
240 240 244 242 239 240 242 242 246 256 263 255 242 236 232 226 213 194 186 194 201 202 203 202 205 210 211 212 219 230 245 255 258 257 256 254 257 265 271 260 235 212 233 316 353 10 18 18 14 10 7 5 4 2 1 0 359 358 357 356 356 357 357 357 357 356 356 356 356 355 356 358 2 5 7 8 9 11 11 10 9 10 12 14 14
237 237 239 237 235 236 236 237 245 257 259 249 233 222 220 225 220 199 186 192 195 196 200 203 205 207 207 211 220 231 243 249 249 249 246 244 247 250 248 240 225 209 224 298 348 5 11 11 8 5 3 1 0 360 359 358 357 356 355 354 354 355 354 354 353 352 353 354 354 354 355 358 1 4 6 8 9 10 11 12 11 10 10 12 14
230 232 235 235 235 234 232 238 252 256 249 235 223 218 218 223 220 202 191 193 192 192 199 203 205 205 206 212 223 232 239 242 241 240 238 235 237 238 234 231 223 211 224 289 339 356 1 1 359 359 358 357 357 357 357 356 355 354 353 352 352 352 351 350 349 349 350 351 352 354 356 357 360 2 4 6 8 8 10 11 12 12 11 10 12
226 230 233 232 230 229 232 241 251 250 237 223 219 219 219 222 219 206 195 194 192 193 199 202 204 205 208 216 227 234 238 238 235 233 232 231 231 230 227 227 223 218 229 278 322 341 349 349 350 352 353 353 355 355 354 354 352 351 351 350 350 349 348 346 346 346 347 349 350 352 355 357 359 0 1 2 4 5 7 10 12 14 13 12 12
228 233 232 226 226 233 242 247 248 242 228 220 219 218 215 217 218 208 196 194 195 196 199 202 204 207 210 219 229 235 235 234 231 229 229 229 228 226 225 226 225 225 236 270 308 327 335 338 341 346 348 351 352 352 350 350 349 349 349 348 346 345 344 343 343 344 345 346 347 348 351 354 357 358 358 358 360 1 4 7 9 11 13 14 14
231 232 225 223 234 244 248 248 246 237 226 221 221 219 214 214 215 208 197 195 199 201 203 204 205 208 213 221 230 234 233 230 228 227 227 227 225 224 225 226 228 232 243 268 297 315 324 329 334 341 346 348 348 347 346 347 347 347 346 344 343 342 342 342 343 343 343 343 344 345 347 350 352 353 354 356 358 359 2 4 6 8 10 12 14
231 225 219 227 237 240 240 244 245 237 228 224 223 220 217 216 214 206 197 195 198 202 204 207 208 210 215 222 227 229 229 226 225 225 225 225 224 224 225 227 231 237 247 266 288 305 314 322 331 338 342 343 343 343 344 344 344 343 342 341 341 340 341 341 342 342 342 342 342 343 343 345 347 350 352 354 355 358 360 2 3 5 6 8 10
234 224 223 228 230 230 234 241 245 238 228 222 220 220 218 214 209 203 198 196 198 198 199 203 208 212 217 223 226 226 226 225 225 225 225 224 224 225 227 229 233 240 250 265 282 297 308 317 327 333 336 338 340 340 340 340 341 340 339 338 338 339 340 341 341 342 342 342 342 342 342 343 344 346 348 350 353 355 358 359 1 2 3 5 7
234 230 232 230 225 228 235 242 244 238 228 221 220 221 218 211 205 202 201 202 203 202 201 203 206 210 216 222 225 226 226 226 226 226 226 225 224 225 229 231 235 242 253 265 279 293 303 312 321 327 331 334 335 335 336 336 336 336 335 335 337 338 339 341 342 342 343 343 343 344 343 342 342 342 344 346 349 353 355 357 359 359 0 2 4
232 233 238 234 226 226 234 242 243 236 227 223 222 222 219 213 208 207 209 210 209 207 207 209 210 213 219 223 224 223 223 224 226 227 227 225 225 226 230 234 237 244 254 265 278 289 298 306 315 321 326 329 330 330 331 332 332 332 332 334 336 337 339 341 342 343 344 345 345 345 345 343 341 341 341 343 346 348 350 352 355 357 359 1 2
233 234 237 236 228 222 229 240 239 230 224 223 223 222 218 212 211 215 219 218 213 210 211 213 213 216 222 225 226 225 224 225 227 228 227 226 226 228 231 235 239 245 255 265 274 284 293 302 310 316 320 323 325 326 327 328 328 329 331 333 334 336 338 340 341 343 345 346 347 347 346 345 344 342 341 341 342 344 345 347 350 353 357 359 0
235 236 234 231 225 221 228 236 234 226 223 222 223 224 218 211 212 220 223 219 215 214 216 217 216 216 220 223 224 225 226 228 229 230 229 229 228 229 233 237 241 246 254 263 271 281 291 299 306 311 315 318 321 323 324 324 325 327 329 331 333 334 337 339 341 343 345 346 347 348 347 347 345 344 342 340 340 341 342 344 346 348 351 354 358
241 241 236 228 220 218 224 229 226 221 220 221 222 220 215 212 214 220 220 217 215 217 219 220 219 220 221 222 223 225 227 230 231 231 232 231 231 232 234 238 243 248 254 261 269 278 288 297 302 307 311 314 318 320 320 321 323 325 328 330 331 333 336 338 340 343 344 346 347 348 348 347 346 345 343 341 340 339 340 341 342 344 346 349 352
245 244 240 234 225 217 214 216 218 217 217 220 220 215 212 214 218 218 215 212 212 215 219 220 220 222 224 224 226 228 231 233 233 233 234 234 234 234 236 239 244 249 254 261 268 277 287 293 298 302 307 311 314 316 317 318 321 324 326 327 330 332 334 337 339 341 343 344 346 347 348 348 347 345 344 342 340 339 338 339 341 342 345 346 348
248 244 239 239 234 223 211 206 208 212 215 216 215 212 212 216 219 215 210 209 210 212 215 216 217 220 223 225 228 231 235 236 236 236 236 236 236 236 237 240 245 250 255 262 270 278 286 292 296 300 304 308 311 312 314 316 319 321 323 325 327 330 332 335 337 339 341 343 345 347 348 349 348 346 345 344 342 340 339 340 341 341 343 344 345
250 247 239 236 234 227 218 208 202 206 212 213 211 212 214 218 217 212 208 208 211 213 214 215 217 220 222 225 229 232 234 235 236 236 237 238 238 238 239 241 246 251 257 263 270 278 284 289 293 297 301 305 307 309 312 315 317 319 321 323 325 328 330 332 334 336 339 343 346 348 348 349 349 348 346 345 345 343 342 342 342 342 342 342 343
246 249 246 237 226 223 223 216 206 203 207 210 211 214 217 218 215 209 207 209 212 214 215 218 220 222 224 227 229 231 232 233 235 236 238 238 238 239 240 243 247 252 257 263 270 277 283 287 291 295 299 302 304 307 310 313 316 317 319 320 322 324 326 328 331 334 338 343 348 350 350 350 350 350 349 349 349 349 348 348 347 346 345 344 343
252 256 254 244 228 219 219 218 212 207 206 208 212 217 219 217 212 207 207 210 213 214 217 220 221 223 226 229 230 232 233 234 236 237 238 239 239 241 243 245 248 253 258 264 271 277 283 287 290 294 297 300 303 306 309 311 313 315 315 317 319 321 323 326 329 333 336 342 347 351 351 350 350 352 354 355 355 356 356 356 355 354 353 352 350
256 258 255 248 237 226 220 217 214 209 206 208 213 218 218 214 209 206 207 210 212 215 217 219 220 223 227 229 231 232 232 234 235 236 238 239 240 242 244 247 251 255 260 266 273 278 283 287 291 294 297 299 302 305 307 309 310 311 312 314 316 318 321 325 328 332 335 340 345 349 350 350 351 353 356 358 359 359 358 358 357 357 356 355 355
250 253 252 248 243 235 228 225 221 215 210 210 213 216 214 210 207 206 207 210 212 214 216 217 218 223 227 229 230 231 231 233 235 236 238 240 241 243 246 249 253 257 263 269 274 279 283 288 291 294 297 299 301 303 305 306 307 308 309 310 312 316 320 324 328 331 334 337 341 345 347 347 348 349 352 354 355 355 355 354 354 353 352 352 352
245 249 251 250 245 239 235 233 230 225 219 215 212 210 209 207 206 206 207 209 212 213 214 215 218 223 227 229 230 231 233 235 237 239 241 242 243 246 248 251 255 260 266 271 276 281 285 289 292 294 296 298 299 301 302 303 304 305 306 307 310 314 318 322 326 329 331 334 337 339 341 342 342 341 342 343 344 345 346 346 345 345 345 345 345
246 247 248 247 244 240 237 235 232 228 224 219 213 209 207 205 205 206 208 210 212 212 213 215 220 224 228 230 232 233 235 238 239 241 242 243 245 247 250 254 259 264 268 273 278 282 287 290 291 293 295 296 297 298 299 299 299 300 302 303 307 311 314 319 324 327 329 331 332 333 335 336 336 333 331 330 330 331 332 333 333 333 334 334 335
245 245 244 243 240 238 237 234 228 223 220 216 213 211 209 206 206 207 209 210 211 211 213 217 221 226 229 231 233 235 237 239 241 242 243 245 248 250 254 259 263 268 272 277 280 284 287 289 290 291 293 294 295 295 295 295 295 295 296 298 302 307 313 319 324 327 328 328 329 329 330 330 331 330 328 326 324 323 324 324 325 326 326 326 326
243 242 243 243 240 238 237 233 226 220 215 211 209 208 207 207 208 209 210 210 210 212 215 219 223 228 231 233 234 235 237 240 243 246 249 252 255 258 262 266 269 273 277 280 283 285 287 288 290 291 292 292 292 291 290 289 290 291 292 295 300 307 315 320 323 324 325 325 325 325 325 325 325 326 325 324 323 322 321 321 321 322 322 321 321
246 244 245 245 243 238 234 230 225 219 213 210 208 206 205 206 208 210 211 211 211 213 217 221 226 230 232 234 237 238 240 243 245 248 252 257 260 263 267 270 273 276 279 280 282 285 286 287 289 290 289 289 288 286 285 286 286 288 290 294 300 307 313 316 318 319 319 320 320 320 319 319 320 321 322 322 321 320 320 319 319 318 318 318 318
246 244 243 243 241 235 229 225 219 213 210 210 209 207 205 206 208 210 211 212 213 215 218 223 227 231 232 235 239 243 246 249 251 253 256 259 262 265 269 272 274 275 277 279 281 283 284 286 286 286 285 285 285 285 285 285 285 287 290 294 300 305 308 310 312 313 314 315 316 315 314 313 314 316 317 318 318 318 318 317 317 316 316 315 315
246 242 240 238 236 232 227 223 217 211 208 208 207 206 204 204 206 208 209 209 212 215 217 221 227 230 233 237 242 246 250 254 257 259 261 263 266 268 270 271 273 275 277 279 281 282 282 283 283 282 283 285 285 286 286 285 286 288 291 296 301 304 306 307 309 311 311 312 313 313 312 312 311 311 312 312 312 313 314 314 314 314 313 312 312
243 239 235 231 229 226 224 222 219 215 211 209 207 205 204 204 204 205 205 206 209 212 214 219 224 230 235 240 244 248 252 255 258 260 263 265 267 270 271 273 275 278 280 281 281 281 281 281 281 281 283 284 285 285 286 286 287 290 293 297 301 304 306 307 307 307 307 308 308 309 310 310 310 310 310 309 309 311 311 311 310 309 308 308 308
243 239 231 225 220 216 214 212 210 208 207 207 207 206 205 205 204 204 204 206 208 210 213 219 226 233 239 242 246 249 253 255 258 260 263 265 268 270 272 274 276 278 279 280 280 279 279 279 279 281 283 284 285 286 287 288 289 291 293 297 301 304 305 305 303 302 302 302 303 304 304 305 306 307 307 307 308 308 308 307 307 306 306 307 308
249 245 237 229 222 215 209 201 194 192 194 198 200 202 203 204 204 204 206 207 208 211 217 223 231 237 242 244 247 250 253 256 259 261 263 265 267 269 271 274 276 277 277 278 277 278 279 280 282 284 285 286 286 287 287 288 289 291 293 296 299 300 301 301 300 299 299 299 300 300 301 301 301 302 303 304 305 305 304 304 304 304 305 307 309
Height
3126 3127 3127 3128 3131 3134 3137 3138 3140 3142 3144 3146 3147 3148 3149 3149 3150 3151 3151 3152 3152 3153 3154 3154 3154 3155 3155 3155 3155 3155 3155 3155 3155 3154 3154 3153 3152 3151 3150 3149 3148 3146 3145 3143 3141 3139 3138 3136 3134 3132 3130 3128 3126 3123 3121 3119 3117 3114 3112 3109 3106 3103 3101 3099 3096 3094 3091 3087 3083 3080 3076 3072 3069 3066 3063 3059 3056 3051 3047 3041 3036 3032 3028 3024 3022
3126 3127 3127 3129 3131 3134 3136 3138 3140 3142 3144 3145 3146 3147 3148 3148 3149 3150 3150 3151 3151 3152 3152 3153 3153 3154 3154 3154 3154 3154 3154 3154 3153 3153 3152 3151 3150 3150 3149 3148 3147 3145 3144 3142 3140 3138 3136 3135 3133 3131 3129 3127 3125 3123 3121 3118 3116 3114 3111 3108 3106 3102 3099 3096 3094 3091 3089 3085 3082 3079 3075 3071 3066 3062 3058 3054 3050 3046 3042 3038 3033 3029 3024 3020 3017
3125 3126 3128 3129 3131 3133 3135 3137 3139 3141 3143 3144 3145 3145 3146 3147 3148 3148 3149 3149 3150 3150 3151 3151 3152 3152 3152 3152 3153 3153 3152 3152 3152 3151 3150 3150 3149 3148 3147 3147 3145 3144 3142 3141 3139 3137 3135 3133 3132 3130 3128 3126 3124 3122 3120 3118 3115 3113 3111 3108 3105 3102 3098 3095 3092 3089 3086 3083 3079 3075 3072 3068 3064 3059 3056 3051 3047 3042 3038 3034 3030 3026 3022 3017 3013
3125 3126 3127 3129 3131 3133 3134 3136 3138 3140 3141 3142 3143 3144 3145 3145 3146 3146 3147 3147 3148 3148 3149 3149 3150 3150 3151 3151 3151 3151 3151 3150 3150 3150 3149 3149 3148 3147 3146 3145 3144 3143 3141 3139 3138 3136 3134 3133 3131 3129 3127 3125 3123 3121 3119 3117 3115 3112 3110 3107 3104 3101 3098 3094 3091 3087 3084 3081 3077 3073 3069 3065 3061 3057 3053 3049 3045 3040 3035 3030 3026 3023 3019 3014 3009
3124 3125 3127 3128 3130 3132 3134 3135 3137 3139 3140 3141 3142 3143 3143 3144 3144 3145 3145 3146 3146 3147 3147 3148 3148 3149 3149 3149 3149 3149 3149 3149 3149 3148 3148 3147 3147 3146 3145 3144 3143 3141 3140 3138 3137 3135 3134 3132 3130 3128 3126 3124 3123 3121 3119 3117 3114 3112 3109 3106 3104 3101 3098 3094 3091 3087 3083 3079 3076 3072 3068 3064 3060 3055 3050 3045 3041 3037 3033 3029 3023 3018 3015 3011 3006
3123 3124 3126 3127 3129 3131 3133 3134 3136 3137 3138 3139 3140 3141 3141 3142 3143 3143 3144 3144 3145 3145 3145 3146 3147 3147 3148 3148 3148 3148 3148 3148 3147 3147 3147 3146 3146 3145 3144 3143 3141 3140 3139 3137 3136 3134 3133 3131 3129 3128 3126 3124 3122 3120 3118 3116 3114 3111 3109 3106 3103 3100 3097 3094 3090 3086 3083 3079 3075 3071 3067 3062 3058 3053 3048 3043 3037 3031 3027 3025 3021 3015 3010 3006 3002
3122 3124 3125 3126 3128 3130 3131 3133 3134 3136 3137 3138 3139 3139 3140 3140 3141 3142 3142 3143 3143 3143 3144 3144 3145 3146 3146 3146 3147 3147 3147 3146 3146 3146 3146 3145 3145 3144 3143 3141 3140 3139 3138 3136 3135 3133 3132 3130 3129 3127 3125 3124 3122 3119 3117 3115 3113 3110 3108 3105 3102 3099 3096 3092 3089 3085 3082 3078 3074 3069 3065 3060 3056 3051 3046 3041 3037 3030 3023 3018 3015 3011 3005 3000 2996
3121 3122 3124 3126 3127 3129 3130 3132 3133 3134 3135 3136 3137 3138 3138 3139 3139 3140 3141 3141 3141 3141 3142 3143 3143 3144 3144 3145 3145 3145 3145 3145 3145 3145 3145 3144 3143 3143 3141 3140 3139 3138 3137 3135 3134 3132 3131 3129 3128 3126 3125 3123 3121 3119 3117 3114 3112 3110 3107 3104 3101 3098 3094 3091 3088 3084 3080 3076 3072 3068 3064 3059 3055 3050 3045 3039 3033 3027 3021 3015 3010 3005 3000 2996 2991
3120 3121 3123 3124 3126 3128 3129 3131 3132 3133 3134 3135 3135 3136 3136 3137 3138 3138 3139 3139 3139 3140 3140 3141 3142 3142 3143 3143 3143 3144 3144 3144 3144 3144 3144 3143 3142 3141 3141 3139 3138 3137 3136 3135 3133 3132 3130 3129 3127 3126 3124 3122 3120 3118 3116 3114 3111 3109 3106 3103 3100 3097 3093 3090 3086 3083 3079 3074 3071 3067 3062 3058 3052 3048 3043 3037 3030 3024 3020 3015 3009 3002 2997 2993 2990
3119 3120 3122 3123 3125 3126 3128 3129 3130 3131 3132 3133 3133 3134 3134 3135 3136 3136 3137 3137 3137 3138 3138 3139 3140 3141 3141 3141 3142 3142 3143 3143 3143 3143 3142 3142 3141 3141 3140 3139 3137 3136 3135 3134 3132 3131 3129 3128 3126 3125 3123 3121 3119 3117 3115 3112 3110 3107 3104 3101 3098 3095 3092 3089 3085 3082 3078 3073 3069 3065 3061 3056 3052 3047 3042 3037 3032 3025 3019 3012 3006 3000 2993 2988 2986
3118 3119 3121 3122 3124 3125 3126 3128 3129 3130 3130 3131 3131 3132 3132 3133 3133 3134 3134 3135 3136 3136 3137 3137 3138 3139 3139 3140 3140 3141 3141 3141 3142 3141 3141 3141 3140 3139 3139 3138 3136 3135 3134 3133 3131 3130 3129 3127 3126 3124 3122 3121 3119 3116 3114 3112 3109 3106 3103 3100 3097 3094 3091 3088 3085 3081 3077 3073 3069 3064 3060 3056 3052 3047 3042 3037 3032 3026 3019 3012 3005 2999 2992 2985 2980
3116 3117 3119 3120 3122 3123 3125 3126 3127 3128 3128 3129 3129 3130 3130 3131 3131 3132 3132 3133 3134 3134 3135 3136 3137 3137 3138 3138 3139 3139 3140 3140 3140 3140 3140 3140 3139 3138 3138 3137 3136 3135 3133 3132 3131 3129 3128 3127 3126 3124 3122 3121 3118 3116 3114 3112 3109 3106 3103 3101 3098 3095 3091 3088 3084 3081 3077 3073 3069 3064 3060 3056 3052 3047 3042 3037 3032 3026 3020 3014 3007 3001 2994 2986 2980
3113 3115 3116 3118 3120 3121 3122 3124 3125 3126 3126 3127 3127 3128 3128 3128 3129 3129 3130 3131 3132 3133 3134 3134 3135 3136 3136 3137 3137 3138 3138 3138 3139 3138 3138 3138 3138 3137 3136 3136 3135 3134 3133 3131 3130 3129 3128 3127 3126 3124 3122 3120 3118 3117 3114 3112 3110 3107 3104 3102 3100 3097 3093 3090 3086 3082 3078 3074 3070 3065 3061 3057 3052 3048 3043 3037 3032 3026 3020 3014 3010 3004 2997 2989 2982
3110 3112 3114 3115 3117 3119 3120 3121 3122 3123 3124 3124 3125 3125 3126 3126 3127 3127 3128 3129 3130 3131 3132 3133 3134 3134 3134 3135 3136 3136 3137 3137 3137 3137 3137 3137 3136 3136 3135 3135 3134 3133 3132 3131 3130 3129 3128 3127 3126 3124 3122 3121 3119 3117 3115 3113 3110 3108 3105 3103 3101 3098 3095 3091 3088 3084 3079 3075 3071 3067 3063 3058 3053 3049 3045 3040 3034 3027 3020 3015 3010 3006 3001 2994 2986
3107 3109 3110 3112 3114 3116 3117 3118 3119 3120 3121 3122 3122 3122 3123 3124 3124 3125 3126 3127 3129 3130 3131 3131 3132 3132 3133 3133 3134 3135 3135 3135 3136 3136 3136 3136 3135 3135 3135 3134 3133 3132 3131 3130 3130 3129 3128 3127 3126 3124 3122 3121 3119 3117 3115 3113 3111 3108 3106 3104 3101 3098 3095 3092 3088 3084 3080 3076 3072 3068 3064 3060 3056 3051 3046 3042 3036 3031 3025 3019 3014 3009 3004 2997 2990
3104 3106 3107 3109 3111 3113 3114 3115 3116 3117 3118 3118 3118 3120 3121 3121 3121 3122 3124 3126 3127 3128 3129 3129 3130 3131 3131 3132 3133 3133 3134 3134 3135 3135 3135 3134 3134 3134 3134 3133 3132 3131 3131 3130 3130 3129 3128 3127 3125 3124 3122 3121 3119 3117 3115 3113 3111 3109 3107 3105 3102 3099 3096 3092 3089 3085 3081 3078 3074 3070 3067 3063 3058 3053 3048 3043 3038 3033 3029 3023 3017 3009 3002 2996 2990
3101 3103 3104 3106 3107 3109 3110 3111 3113 3114 3114 3114 3116 3117 3117 3117 3118 3120 3122 3123 3125 3126 3127 3127 3128 3129 3130 3130 3131 3132 3133 3133 3133 3133 3133 3133 3133 3133 3133 3132 3131 3131 3130 3130 3130 3129 3128 3127 3125 3123 3122 3120 3119 3117 3115 3113 3111 3109 3108 3105 3103 3101 3098 3095 3091 3087 3084 3080 3076 3073 3069 3065 3061 3056 3050 3044 3039 3033 3028 3023 3015 3007 3000 2994 2988
3098 3099 3100 3101 3103 3105 3106 3108 3110 3111 3111 3112 3114 3114 3113 3113 3115 3117 3119 3121 3122 3123 3124 3126 3127 3128 3128 3129 3130 3131 3131 3132 3132 3132 3132 3132 3132 3132 3132 3131 3131 3130 3130 3130 3129 3129 3127 3126 3124 3123 3122 3120 3119 3117 3115 3113 3111 3109 3108 3105 3103 3100 3098 3095 3092 3089 3085 3082 3079 3075 3071 3067 3062 3057 3052 3046 3039 3034 3028 3022 3015 3009 3002 2995 2988
3096 3097 3097 3099 3101 3103 3104 3106 3108 3107 3108 3109 3111 3110 3110 3111 3112 3114 3116 3118 3120 3121 3122 3124 3125 3126 3127 3128 3129 3129 3130 3130 3131 3131 3131 3131 3131 3131 3131 3130 3130 3130 3130 3129 3129 3128 3127 3125 3124 3122 3121 3120 3118 3117 3115 3113 3111 3109 3107 3105 3102 3100 3096 3093 3090 3087 3085 3082 3079 3075 3072 3067 3063 3058 3053 3047 3041 3035 3029 3023 3018 3012 3005 2998 2992
3094 3095 3096 3098 3100 3101 3102 3104 3105 3104 3104 3106 3107 3106 3106 3107 3108 3110 3113 3115 3117 3119 3121 3122 3123 3125 3125 3126 3127 3128 3129 3129 3130 3130 3130 3130 3130 3130 3130 3129 3129 3129 3129 3129 3128 3127 3126 3125 3123 3122 3121 3120 3118 3116 3114 3112 3110 3108 3106 3104 3102 3099 3095 3092 3089 3086 3084 3081 3077 3074 3071 3068 3063 3059 3053 3048 3043 3037 3031 3025 3019 3013 3007 3002 2997
3092 3093 3094 3096 3098 3099 3100 3101 3102 3102 3102 3103 3104 3105 3106 3108 3107 3107 3110 3113 3116 3118 3119 3120 3122 3123 3124 3125 3126 3127 3127 3128 3128 3128 3128 3128 3129 3129 3129 3129 3129 3129 3129 3128 3128 3127 3125 3124 3123 3122 3120 3119 3118 3116 3114 3112 3110 3108 3105 3103 3100 3097 3094 3092 3089 3087 3084 3081 3078 3075 3072 3068 3064 3059 3054 3049 3044 3039 3033 3027 3021 3015 3009 3004 3000
3090 3091 3093 3094 3095 3097 3098 3098 3099 3100 3100 3101 3102 3104 3107 3110 3109 3107 3108 3111 3114 3116 3118 3119 3121 3122 3123 3124 3125 3125 3126 3126 3127 3127 3127 3127 3127 3128 3128 3128 3128 3128 3128 3128 3127 3126 3124 3123 3122 3121 3120 3119 3117 3115 3113 3111 3109 3107 3105 3103 3100 3097 3094 3092 3090 3087 3085 3082 3078 3075 3071 3067 3063 3059 3055 3050 3045 3040 3036 3030 3023 3018 3013 3008 3003
3089 3090 3090 3092 3093 3094 3095 3096 3097 3098 3098 3099 3101 3102 3104 3108 3109 3106 3106 3109 3112 3114 3116 3118 3119 3120 3121 3122 3123 3124 3124 3125 3125 3125 3126 3126 3126 3126 3126 3127 3127 3127 3127 3127 3126 3125 3124 3123 3122 3121 3119 3118 3116 3115 3113 3111 3109 3107 3105 3103 3100 3097 3095 3092 3090 3088 3085 3082 3079 3075 3071 3066 3062 3059 3055 3051 3047 3042 3038 3033 3028 3022 3018 3014 3009
3086 3088 3088 3090 3091 3092 3093 3094 3095 3096 3096 3097 3099 3100 3102 3105 3107 3106 3106 3108 3110 3112 3114 3116 3117 3119 3120 3121 3122 3123 3123 3123 3124 3124 3124 3125 3125 3125 3125 3126 3126 3126 3126 3126 3125 3124 3123 3122 3121 3120 3119 3117 3116 3114 3112 3110 3109 3107 3105 3103 3100 3097 3095 3092 3090 3087 3084 3081 3078 3074 3070 3066 3062 3058 3054 3051 3049 3046 3042 3038 3033 3028 3022 3018 3013
3085 3086 3086 3087 3088 3089 3090 3091 3092 3093 3094 3096 3098 3100 3101 3104 3105 3105 3105 3107 3109 3111 3113 3114 3115 3117 3118 3119 3120 3121 3121 3122 3122 3122 3123 3123 3123 3124 3124 3125 3125 3125 3125 3124 3124 3123 3122 3121 3121 3119 3118 3116 3115 3113 3111 3110 3108 3106 3104 3102 3099 3097 3094 3091 3088 3086 3083 3080 3077 3074 3070 3066 3062 3058 3055 3053 3051 3048 3046 3042 3038 3034 3029 3024 3018
3083 3083 3084 3085 3086 3087 3088 3089 3090 3092 3093 3095 3096 3098 3100 3102 3104 3104 3104 3106 3108 3109 3111 3112 3114 3115 3116 3118 3118 3119 3119 3120 3120 3121 3121 3122 3122 3123 3123 3123 3124 3124 3124 3123 3123 3122 3121 3121 3120 3119 3117 3115 3114 3112 3110 3109 3107 3105 3103 3101 3098 3096 3093 3090 3087 3084 3081 3078 3076 3073 3070 3067 3063 3060 3057 3054 3051 3048 3045 3042 3039 3035 3032 3027 3022
3080 3081 3081 3083 3084 3085 3086 3087 3089 3090 3092 3093 3094 3096 3098 3100 3101 3102 3103 3105 3106 3108 3109 3111 3112 3114 3115 3116 3117 3117 3118 3118 3119 3119 3120 3120 3121 3121 3122 3122 3123 3123 3122 3122 3121 3121 3120 3120 3119 3117 3116 3114 3113 3111 3110 3108 3106 3104 3102 3100 3097 3095 3092 3089 3086 3082 3080 3077 3075 3072 3069 3067 3064 3061 3058 3054 3051 3047 3044 3041 3038 3035 3032 3029 3025
3078 3078 3079 3080 3081 3082 3084 3085 3087 3088 3090 3091 3093 3094 3096 3098 3100 3101 3102 3103 3105 3107 3108 3109 3111 3112 3113 3114 3115 3115 3116 3116 3117 3117 3118 3119 3119 3120 3120 3121 3121 3121 3121 3121 3120 3120 3119 3119 3117 3116 3115 3113 3112 3110 3109 3107 3105 3103 3101 3099 3096 3093 3091 3088 3085 3082 3079 3076 3074 3071 3069 3066 3064 3061 3058 3054 3051 3047 3044 3041 3038 3035 3032 3029 3026
3075 3075 3076 3078 3079 3080 3082 3083 3085 3086 3088 3089 3091 3092 3094 3096 3098 3099 3100 3101 3102 3104 3105 3107 3108 3109 3110 3112 3112 3113 3114 3114 3115 3116 3117 3117 3118 3118 3119 3119 3120 3120 3119 3119 3119 3118 3118 3117 3116 3115 3113 3112 3110 3109 3107 3106 3104 3102 3100 3098 3095 3093 3090 3087 3084 3081 3078 3075 3073 3070 3067 3064 3062 3060 3057 3054 3051 3047 3044 3041 3038 3035 3032 3029 3026
3072 3073 3075 3076 3077 3078 3080 3081 3082 3084 3085 3087 3088 3090 3092 3093 3095 3096 3097 3099 3100 3101 3102 3103 3105 3106 3108 3109 3110 3111 3112 3112 3113 3114 3115 3115 3116 3117 3117 3118 3118 3118 3118 3118 3117 3117 3116 3116 3115 3113 3112 3111 3109 3108 3106 3105 3103 3101 3098 3096 3094 3092 3089 3086 3083 3080 3077 3074 3071 3068 3065 3062 3060 3058 3056 3053 3051 3048 3045 3041 3038 3035 3032 3029 3026
3070 3072 3073 3074 3075 3076 3078 3079 3080 3081 3083 3085 3086 3088 3089 3091 3093 3094 3095 3096 3098 3099 3100 3101 3103 3104 3106 3107 3108 3109 3110 3110 3111 3112 3113 3114 3114 3115 3116 3116 3116 3116 3117 3116 3116 3115 3115 3114 3113 3112 3111 3109 3108 3107 3105 3104 3102 3100 3097 3095 3093 3090 3088 3085 3082 3079 3076 3073 3070 3067 3064 3061 3058 3056 3054 3051 3049 3047 3045 3042 3039 3036 3033 3029 3026
3068 3069 3071 3071 3072 3073 3075 3077 3078 3079 3080 3082 3084 3086 3087 3089 3091 3092 3094 3095 3096 3097 3098 3099 3101 3103 3104 3105 3106 3107 3107 3108 3109 3110 3111 3112 3112 3113 3114 3114 3115 3115 3115 3115 3114 3114 3113 3112 3111 3110 3109 3108 3107 3105 3104 3102 3100 3098 3096 3094 3091 3089 3086 3084 3081 3078 3075 3072 3069 3066 3063 3060 3057 3055 3052 3050 3048 3046 3044 3042 3039 3037 3034 3031 3028
3065 3066 3067 3068 3068 3070 3072 3074 3075 3077 3078 3080 3082 3084 3085 3087 3089 3091 3092 3093 3094 3095 3096 3098 3099 3101 3102 3103 3104 3104 3105 3106 3107 3108 3109 3110 3110 3111 3112 3112 3113 3113 3113 3113 3113 3112 3111 3111 3110 3109 3108 3106 3105 3104 3102 3100 3098 3096 3094 3092 3090 3088 3085 3082 3080 3077 3074 3071 3068 3065 3062 3059 3056 3053 3051 3049 3046 3044 3042 3040 3038 3036 3034 3032 3029
3061 3062 3062 3063 3064 3066 3068 3071 3072 3074 3076 3078 3079 3081 3083 3085 3087 3088 3089 3091 3092 3093 3094 3096 3097 3099 3100 3101 3101 3102 3103 3104 3105 3106 3107 3108 3108 3109 3110 3111 3111 3111 3111 3111 3111 3110 3110 3109 3108 3107 3106 3105 3103 3102 3100 3099 3097 3095 3093 3090 3088 3086 3084 3081 3078 3075 3073 3070 3067 3064 3061 3058 3055 3052 3050 3047 3045 3043 3041 3039 3037 3035 3033 3031 3029
3058 3058 3059 3060 3061 3062 3064 3067 3069 3071 3073 3075 3077 3078 3080 3082 3084 3085 3087 3088 3090 3091 3092 3094 3095 3096 3097 3098 3099 3100 3101 3103 3103 3104 3105 3106 3106 3107 3108 3109 3109 3109 3109 3109 3109 3108 3108 3107 3106 3105 3104 3103 3102 3100 3098 3097 3095 3093 3091 3089 3087 3085 3082 3080 3077 3074 3072 3069 3066 3063 3060 3057 3054 3051 3048 3046 3043 3041 3039 3037 3035 3033 3032 3030 3028
3055 3056 3056 3057 3058 3060 3061 3062 3065 3068 3070 3072 3074 3075 3077 3079 3081 3082 3084 3085 3087 3088 3089 3091 3092 3093 3095 3096 3097 3098 3100 3101 3101 3102 3103 3104 3104 3105 3106 3106 3107 3107 3107 3107 3106 3106 3105 3105 3104 3103 3102 3101 3099 3098 3096 3095 3093 3091 3089 3087 3085 3083 3081 3078 3076 3073 3071 3068 3065 3063 3060 3056 3053 3050 3048 3045 3042 3040 3038 3036 3034 3032 3030 3029 3027
3052 3053 3053 3054 3055 3057 3059 3059 3060 3063 3066 3068 3070 3072 3073 3075 3077 3079 3080 3082 3084 3085 3086 3088 3090 3091 3092 3094 3095 3096 3097 3098 3099 3099 3100 3101 3102 3103 3103 3104 3104 3104 3105 3104 3104 3103 3103 3102 3102 3101 3100 3098 3097 3096 3094 3093 3091 3089 3087 3085 3083 3081 3079 3077 3075 3072 3070 3068 3065 3062 3059 3056 3053 3050 3047 3045 3043 3040 3038 3036 3034 3032 3030 3028 3026
3049 3049 3050 3051 3053 3055 3057 3057 3057 3059 3061 3064 3067 3068 3070 3072 3073 3075 3077 3079 3081 3083 3084 3086 3088 3089 3090 3092 3092 3093 3094 3095 3096 3097 3098 3099 3100 3100 3100 3101 3101 3102 3102 3102 3101 3101 3100 3100 3099 3098 3097 3096 3095 3093 3092 3090 3088 3087 3085 3083 3082 3080 3078 3075 3073 3071 3069 3066 3064 3061 3058 3055 3052 3050 3047 3045 3042 3040 3038 3036 3034 3032 3030 3028 3025
3046 3047 3048 3050 3050 3051 3053 3055 3055 3056 3058 3060 3063 3065 3067 3068 3070 3072 3074 3076 3078 3081 3083 3085 3086 3087 3088 3089 3090 3091 3092 3093 3094 3095 3095 3096 3097 3097 3098 3098 3099 3099 3099 3099 3098 3098 3098 3097 3096 3096 3095 3093 3092 3091 3089 3088 3086 3084 3083 3081 3079 3078 3076 3074 3072 3069 3067 3065 3063 3060 3057 3055 3052 3050 3047 3045 3043 3041 3038 3036 3034 3032 3030 3028 3025
3043 3044 3046 3047 3047 3048 3049 3050 3052 3052 3054 3056 3059 3061 3063 3066 3068 3070 3072 3074 3076 3078 3080 3082 3084 3085 3086 3086 3088 3089 3090 3090 3091 3091 3092 3093 3094 3095 3095 3096 3096 3097 3097 3096 3096 3095 3095 3094 3094 3093 3092 3091 3089 3088 3086 3085 3084 3082 3080 3079 3077 3076 3074 3072 3070 3067 3065 3064 3062 3059 3057 3055 3052 3050 3048 3045 3043 3041 3039 3037 3035 3032 3030 3028 3026
3040 3041 3042 3043 3044 3045 3046 3048 3049 3050 3052 3053 3055 3058 3061 3063 3065 3067 3069 3072 3074 3076 3077 3079 3081 3082 3083 3084 3085 3086 3087 3087 3088 3088 3089 3090 3091 3092 3093 3093 3094 3094 3094 3093 3093 3092 3092 3091 3091 3090 3089 3088 3086 3085 3084 3082 3081 3079 3078 3076 3075 3073 3072 3070 3068 3065 3063 3062 3060 3058 3056 3054 3052 3050 3048 3046 3044 3041 3039 3037 3035 3033 3030 3028 3026
3037 3038 3039 3040 3041 3043 3044 3045 3047 3049 3050 3051 3053 3056 3058 3060 3063 3065 3067 3069 3071 3073 3074 3076 3078 3079 3080 3082 3083 3083 3084 3085 3085 3086 3087 3088 3089 3089 3090 3091 3091 3091 3091 3090 3090 3089 3089 3088 3088 3087 3086 3085 3084 3082 3081 3079 3078 3076 3075 3074 3072 3071 3069 3067 3066 3064 3061 3060 3058 3057 3055 3053 3051 3049 3047 3045 3043 3041 3039 3037 3035 3033 3030 3028 3026
3034 3035 3036 3037 3039 3040 3041 3043 3045 3047 3048 3049 3051 3054 3056 3058 3060 3062 3064 3066 3068 3070 3072 3073 3075 3076 3077 3079 3080 3081 3081 3082 3083 3084 3085 3085 3086 3087 3087 3087 3088 3088 3088 3087 3087 3086 3086 3085 3085 3084 3083 3082 3081 3079 3078 3077 3075 3074 3072 3071 3070 3068 3067 3065 3063 3061 3060 3058 3056 3055 3053 3052 3050 3048 3046 3044 3042 3040 3038 3036 3034 3032 3030 3028 3025
3031 3032 3033 3035 3036 3037 3038 3040 3042 3044 3046 3047 3049 3052 3054 3056 3057 3059 3061 3064 3066 3068 3070 3071 3072 3073 3075 3076 3078 3078 3079 3080 3081 3081 3082 3083 3083 3084 3084 3085 3085 3085 3085 3084 3084 3083 3083 3082 3082 3081 3080 3079 3078 3076 3075 3074 3073 3071 3070 3068 3067 3066 3064 3062 3061 3059 3057 3056 3054 3053 3051 3050 3048 3046 3044 3042 3040 3038 3036 3034 3032 3030 3028 3026 3024
3029 3030 3031 3032 3033 3034 3036 3037 3039 3041 3042 3044 3045 3047 3050 3053 3055 3057 3060 3062 3064 3066 3067 3068 3070 3071 3072 3074 3075 3076 3077 3078 3078 3079 3080 3080 3081 3081 3081 3082 3082 3082 3081 3081 3080 3080 3079 3079 3078 3078 3077 3076 3075 3073 3072 3071 3069 3068 3066 3065 3064 3063 3062 3060 3058 3057 3055 3053 3051 3050 3048 3047 3046 3044 3042 3040 3038 3036 3034 3032 3030 3028 3026 3024 3022
3026 3027 3029 3030 3031 3032 3033 3035 3036 3037 3039 3040 3042 3044 3047 3050 3053 3056 3058 3060 3062 3064 3065 3067 3068 3069 3070 3071 3072 3073 3074 3075 3076 3077 3078 3078 3078 3079 3079 3079 3079 3078 3078 3078 3077 3076 3076 3075 3075 3074 3073 3072 3071 3070 3069 3068 3066 3065 3063 3063 3062 3061 3059 3057 3055 3054 3052 3051 3049 3047 3045 3044 3043 3041 3039 3037 3035 3033 3031 3029 3027 3025 3023 3021 3019
3023 3024 3026 3027 3028 3029 3030 3031 3033 3034 3037 3039 3041 3044 3046 3049 3052 3054 3056 3058 3060 3061 3063 3064 3066 3067 3068 3069 3070 3071 3072 3073 3074 3074 3075 3075 3075 3076 3075 3075 3075 3075 3075 3075 3074 3073 3073 3072 3072 3071 3070 3069 3068 3067 3066 3065 3063 3062 3060 3060 3059 3058 3056 3054 3053 3051 3050 3048 3046 3044 3042 3041 3039 3038 3036 3034 3032 3029 3028 3026 3024 3022 3020 3018 3016
3020 3021 3022 3024 3025 3026 3027 3028 3030 3031 3033 3035 3038 3041 3044 3046 3049 3051 3053 3055 3057 3058 3060 3061 3063 3064 3065 3066 3067 3068 3069 3070 3071 3071 3072 3072 3072 3072 3072 3072 3072 3072 3072 3071 3071 3070 3069 3069 3068 3067 3066 3065 3064 3063 3062 3061 3060 3059 3057 3056 3055 3054 3052 3051 3050 3048 3047 3045 3043 3041 3039 3037 3035 3034 3032 3030 3028 3025 3024 3022 3020 3018 3016 3014 3012
3017 3018 3019 3020 3021 3023 3024 3026 3027 3029 3031 3033 3036 3039 3041 3043 3046 3048 3050 3052 3053 3055 3057 3058 3060 3061 3062 3064 3065 3066 3066 3067 3068 3069 3069 3069 3069 3069 3069 3069 3069 3069 3068 3068 3067 3067 3066 3065 3064 3063 3063 3062 3061 3060 3059 3058 3056 3055 3054 3053 3051 3050 3049 3047 3046 3044 3043 3041 3039 3037 3035 3033 3031 3030 3028 3026 3023 3021 3019 3017 3016 3014 3012 3010 3008
3015 3016 3016 3017 3018 3020 3021 3023 3025 3028 3031 3033 3035 3038 3040 3042 3044 3046 3047 3049 3051 3053 3054 3056 3057 3059 3060 3061 3062 3063 3064 3065 3065 3066 3066 3066 3066 3066 3066 3066 3066 3065 3065 3064 3064 3063 3063 3062 3061 3060 3059 3058 3057 3056 3055 3054 3053 3052 3050 3049 3048 3046 3045 3043 3041 3040 3038 3036 3035 3032 3030 3029 3027 3025 3023 3021 3018 3016 3014 3012 3010 3009 3006 3004 3003
3013 3014 3014 3015 3016 3017 3018 3020 3023 3025 3028 3031 3033 3036 3038 3040 3042 3044 3046 3047 3049 3051 3052 3053 3055 3056 3057 3059 3060 3060 3061 3062 3062 3062 3063 3063 3063 3063 3063 3063 3062 3062 3062 3061 3060 3060 3059 3058 3057 3057 3055 3054 3053 3052 3051 3050 3049 3048 3047 3045 3044 3042 3041 3039 3037 3035 3033 3031 3029 3027 3025 3023 3021 3019 3017 3015 3013 3011 3009 3007 3005 3002 3000 2998 2996